Home > Weather > Stonewall > Past weeks

Flag for Canada Past Weather in Stonewall, Manitoba, Canada — Yesterday and Last 2 Weeks

Now
64 °F

Clear.


Feels Like: 64 °F
Forecast: 58 / 78 °F
Wind: 5 mph from Northeast

Location: Winnipeg Int. Airportman.

Current Time: Jul 26, 2016 at 5:20:52 AM

Latest Report: Jul 26, 2016 at 4:00 AM


Visibility: 15 mi

Pressure: 29.95 "Hg

Humidity: 94%

Dew Point: 63 °F

Location of StonewallLocation

Past Weather in Stonewall — Graph

°F

Stonewall Temperature Yesterday

Maximum temperature yesterday: 82 °F (at 4:00 PM)
Minimum temperature yesterday: 61 °F (at 12:00 AM)
Average temperature yesterday: 71 °F

High & Low Weather Summary for the Past Weeks

 TemperatureHumidityPressure
High88 °F (Jul 20, 4:00 PM)100% (Jul 12, 6:00 AM)30.20 "Hg (Jul 12, 6:00 AM)
Low48 °F (Jul 15, 2:00 AM)41% (Jul 15, 2:00 PM)29.28 "Hg (Jul 12, 11:00 PM)
Average68 °F79%29.84 "Hg
* Reported Jul 11 4:00 AM — Jul 26 4:00 AM, Stonewall, Weather by CustomWeather, © 2016

Note: Actual official high and low records may vary slightly from our data, if they occured in-between our weather recording intervals... More about our weather records

Advertising

Stonewall Weather History for the Previous 24 Hours

Scroll right to see more
 ConditionsComfort  
Time TempWeatherWind HumidityBarometerVisibility
4:00 AM
Tue, Jul 26
64 °FClear.5 mph94%29.95 "Hg15 mi
3:00 AM63 °FClear.No wind100%29.96 "Hg15 mi
2:00 AM63 °FClear.2 mph94%29.95 "Hg15 mi
1:00 AM70 °FClear.6 mph78%29.93 "Hg15 mi
12:00 AM70 °FClear.6 mph78%29.94 "Hg15 mi
11:00 PM
Mon, Jul 25
72 °FPassing clouds.8 mph73%29.93 "Hg15 mi
10:00 PM73 °FPassing clouds.6 mph69%29.93 "Hg15 mi
9:00 PM75 °FPassing clouds.6 mph65%29.93 "Hg15 mi
8:00 PM77 °FPassing clouds.8 mph61%29.93 "Hg15 mi
7:00 PM81 °FPassing clouds.7 mph58%29.93 "Hg15 mi
6:00 PM81 °FPassing clouds.9 mph58%29.93 "Hg15 mi
5:00 PM82 °FPassing clouds.2 mph55%29.93 "Hg15 mi
4:00 PM82 °FPassing clouds.8 mph51%29.94 "Hg15 mi
3:00 PM81 °FPassing clouds.3 mph51%29.95 "Hg15 mi
2:00 PM81 °FPassing clouds.8 mph54%29.96 "Hg15 mi
1:00 PM79 °FPassing clouds.8 mph54%29.97 "Hg15 mi
12:00 PM77 °FSunny.10 mph61%29.97 "Hg15 mi
11:00 AM75 °FSunny.9 mph69%29.97 "Hg15 mi
10:00 AM73 °FSunny.7 mph69%29.97 "Hg15 mi
9:00 AM70 °FSunny.8 mph78%29.98 "Hg15 mi
8:00 AM64 °FSunny.9 mph88%29.97 "Hg15 mi
7:00 AM61 °FSunny.9 mph94%29.96 "Hg15 mi
6:00 AM61 °FClear.9 mph94%29.96 "Hg15 mi
5:00 AM61 °FClear.8 mph94%29.95 "Hg15 mi
Weather by CustomWeather, © 2016

See weather overviewHow to use our weather pages